Wetbulb
48.47 48.29 48.36 48.85 49.62 50.57 51.48 52.04 51.75 52.27 53.18 53.71 53.87 53.80 53.75 53.65 53.58 53.69 53.91 54.31 54.53 54.97 55.36 55.87 56.43 56.69 56.82 57.03 57.62 58.15 58.54 58.67 58.72 58.43 58.21 58.79 59.78 60.40 60.78 61.14 61.49 61.72 61.90 61.79 61.65 61.72 61.95 62.13 62.29 62.20 62.11 61.87 62.06 62.21 62.30 62.39 62.12 61.90 61.72 61.63 61.22 60.50 59.43 58.83 58.58 58.41 58.31 58.24 58.63
48.30 48.17 48.11 48.07 48.92 50.16 51.39 51.79 51.86 52.32 53.12 53.91 53.98 53.92 53.85 53.72 53.71 53.77 53.89 54.31 54.75 55.21 55.61 56.01 56.32 56.64 56.91 57.00 57.68 58.15 58.49 58.54 58.71 58.88 59.15 59.72 60.18 60.63 61.05 61.42 61.72 62.01 62.15 62.13 61.99 61.93 61.98 62.14 62.11 62.07 61.89 61.87 61.90 61.90 61.99 62.17 62.08 61.66 61.43 61.42 61.51 60.84 59.87 59.01 58.73 58.51 58.37 58.41 58.65
48.34 48.23 48.64 49.63 50.29 50.94 51.36 51.92 52.22 52.63 53.16 53.68 54.05 54.02 53.92 53.98 54.06 53.99 54.18 54.70 55.06 55.50 55.96 56.07 56.51 56.64 56.84 57.40 58.11 58.54 58.65 58.74 59.07 59.47 59.93 60.25 60.50 60.87 61.26 61.63 61.92 61.95 61.93 62.20 62.27 62.20 62.22 62.23 61.91 61.47 61.25 61.65 61.63 61.63 61.66 61.79 61.57 61.30 61.06 61.21 61.62 61.10 60.15 59.33 58.89 58.75 58.61 58.75 58.49
48.22 48.40 48.96 50.21 50.56 50.99 51.37 51.93 52.24 52.64 53.05 53.66 53.82 53.85 53.97 54.29 54.35 54.30 54.58 55.06 55.21 55.71 56.20 56.26 56.91 57.04 57.32 57.82 58.38 58.63 58.58 58.17 59.02 59.60 60.07 60.36 60.71 61.14 61.63 61.85 61.90 62.15 62.34 62.67 62.67 62.49 62.31 62.36 62.07 61.72 61.51 61.56 61.52 61.29 61.33 61.45 61.24 61.06 61.12 61.52 61.05 60.52 60.02 59.59 59.03 58.88 58.76 58.81 58.47
48.11 48.64 49.68 50.89 51.04 51.32 51.64 52.05 52.44 52.81 53.25 53.74 54.06 54.23 54.37 54.70 54.58 54.65 54.94 55.45 55.57 56.18 56.61 56.82 57.48 57.69 57.88 58.23 58.59 58.72 58.72 58.58 57.78 58.84 60.23 60.62 61.08 61.51 61.85 61.81 61.83 62.07 62.31 62.49 62.58 62.49 62.31 62.31 62.32 62.11 61.85 61.69 61.54 61.30 61.28 61.14 60.92 60.97 61.11 61.35 60.46 60.25 60.13 59.90 59.22 58.90 58.71 58.54 58.33
48.16 49.15 50.56 51.65 51.56 51.71 52.08 52.43 52.84 53.19 53.54 54.13 54.30 54.34 54.60 54.80 54.92 54.96 55.27 55.80 56.06 56.53 56.83 56.29 56.67 57.00 57.63 58.61 58.85 58.94 59.04 59.48 59.40 59.85 60.55 60.93 61.45 61.83 62.00 61.83 61.83 61.98 62.18 62.36 62.49 62.49 62.40 62.31 62.22 62.05 62.02 61.77 61.56 61.45 61.45 61.29 60.92 60.77 60.64 60.12 60.10 60.27 60.21 59.52 59.12 58.87 58.51 58.00 57.73
48.65 49.84 51.24 52.06 51.81 51.99 52.39 52.93 53.55 53.88 54.16 54.74 54.83 54.71 54.69 54.90 55.02 55.29 55.57 56.35 56.50 56.79 56.85 56.27 56.59 57.22 57.93 58.75 59.00 59.22 59.41 59.94 60.26 60.61 60.93 61.39 61.66 61.77 61.68 61.68 61.79 61.93 62.13 62.31 62.31 62.36 62.31 62.34 62.04 61.53 60.79 60.41 60.85 61.01 60.96 60.99 60.72 60.24 59.61 59.15 59.39 59.57 59.66 59.12 59.01 58.61 58.22 57.67 57.41
49.73 50.77 51.86 52.35 52.21 52.35 52.76 53.48 54.11 54.50 54.84 55.25 55.15 55.02 54.96 55.10 55.29 55.54 56.00 56.67 56.67 57.08 57.21 57.38 57.73 58.09 58.46 58.84 59.03 59.44 59.79 60.17 60.52 60.98 61.30 61.59 61.59 61.68 61.77 61.84 61.84 61.84 61.93 62.20 62.27 62.23 62.27 62.31 61.95 61.48 61.13 60.67 60.65 60.45 60.18 60.09 59.68 59.24 58.82 58.65 58.82 58.87 58.96 59.01 58.94 58.54 57.94 57.53 57.19
50.84 51.65 52.45 52.70 52.53 52.83 53.56 54.41 54.85 55.01 55.20 55.36 55.47 55.50 55.27 55.30 55.43 55.92 56.30 56.83 56.67 57.06 57.69 58.21 58.15 58.24 58.60 59.14 59.35 59.72 60.23 60.57 60.82 61.19 61.42 61.28 61.19 61.51 61.73 61.86 61.71 61.66 61.80 62.04 62.05 62.09 62.04 62.00 61.69 61.30 61.06 60.76 60.52 60.03 59.68 59.46 59.04 58.65 58.58 58.42 58.36 58.28 58.34 58.63 58.49 58.11 57.71 57.41 57.14
51.62 52.28 52.68 52.70 52.84 53.53 54.46 55.27 55.40 55.40 55.41 55.66 55.69 55.47 54.81 53.89 54.96 56.02 56.78 57.16 56.95 57.41 58.00 58.43 58.39 58.44 58.79 59.35 59.58 60.05 60.57 61.00 61.19 61.24 61.15 60.76 60.97 61.32 61.77 61.64 61.50 61.41 61.51 61.71 61.84 61.95 61.89 61.64 61.21 61.03 60.87 60.68 60.24 59.75 59.34 59.04 58.54 58.30 58.23 58.21 57.93 57.84 57.86 58.10 57.88 57.67 57.52 57.29 57.06
52.30 52.74 53.01 53.14 53.56 54.35 54.96 55.56 55.43 55.43 55.47 55.64 55.63 55.44 54.96 54.19 55.52 56.35 56.93 57.38 57.58 57.96 58.30 58.51 58.71 58.89 59.07 59.52 59.79 60.12 60.51 60.97 61.21 61.06 60.92 60.87 60.96 61.25 61.56 61.50 61.32 61.19 61.21 61.40 61.66 61.64 61.59 61.24 60.85 60.52 60.26 60.27 60.09 59.52 59.01 58.64 58.40 58.17 57.99 58.01 57.68 57.47 57.43 57.48 57.60 57.55 57.43 57.30 56.98
53.03 53.25 53.60 53.97 54.59 55.04 55.32 55.34 55.30 55.21 55.25 55.36 55.42 55.43 55.57 55.84 56.55 56.75 56.90 57.64 57.97 58.35 58.61 58.73 59.04 59.11 59.30 59.64 59.83 60.02 60.31 60.79 61.15 61.19 61.14 61.07 61.14 61.36 61.47 61.41 61.23 61.10 61.15 61.21 61.37 61.41 61.23 60.88 60.43 59.97 59.76 59.76 59.75 59.26 58.74 58.37 58.13 57.87 57.81 57.65 57.53 57.36 57.20 57.20 57.37 57.49 57.55 57.40 57.03
53.62 53.84 54.11 54.52 54.96 55.21 55.20 55.10 55.07 55.07 55.07 55.06 55.43 55.68 56.01 56.30 56.72 56.92 57.25 58.05 58.25 58.61 58.79 58.85 59.10 59.35 59.52 59.92 59.84 60.07 60.49 60.94 61.19 61.14 61.05 60.98 61.04 61.18 61.25 61.28 61.19 61.10 60.96 61.10 61.14 61.18 61.00 60.60 60.10 59.69 59.35 59.31 59.32 58.97 58.57 58.20 57.96 57.66 57.46 57.30 57.06 56.98 56.97 56.96 57.40 57.52 57.45 57.21 56.93
54.02 54.06 54.28 54.79 54.95 55.03 54.93 54.66 54.76 54.86 55.04 55.33 55.92 56.21 56.53 56.81 56.83 56.99 57.49 58.37 58.58 58.78 58.92 58.92 58.83 59.07 59.33 59.98 60.10 60.24 60.51 61.06 61.14 61.14 61.00 60.85 61.00 61.11 61.14 61.14 61.14 61.05 60.87 60.96 61.00 60.84 60.70 60.30 59.94 59.53 59.25 58.99 58.90 58.59 58.28 58.20 57.90 57.60 57.39 57.06 56.83 56.78 56.85 57.09 57.32 57.32 57.11 56.86 56.57
53.93 54.06 54.23 54.74 54.87 54.91 54.86 54.72 54.86 55.23 55.55 56.15 56.88 57.18 57.32 57.46 57.23 57.25 57.63 58.46 58.69 58.83 58.93 58.85 58.79 58.89 59.22 59.94 60.20 60.44 60.78 61.01 61.10 60.92 60.78 60.69 60.82 60.87 60.92 61.05 61.05 60.96 60.87 60.87 60.85 60.70 60.45 60.17 59.86 59.45 59.22 58.98 58.62 58.45 58.14 58.11 57.94 57.72 57.48 57.22 57.01 56.92 57.06 57.35 57.21 57.14 56.98 56.63 56.50
53.55 53.90 54.29 54.66 54.93 55.15 55.32 55.31 55.68 56.10 56.50 57.08 57.82 57.93 58.10 58.08 58.30 58.00 57.77 58.24 58.61 58.93 59.07 58.71 58.93 59.19 59.37 59.34 60.05 60.46 60.69 60.88 60.85 60.67 60.67 60.61 60.61 60.61 60.79 60.83 60.87 60.87 60.82 60.67 60.58 60.43 60.40 60.23 59.87 59.60 59.32 59.04 58.69 58.35 58.14 58.06 57.98 57.81 57.62 57.44 57.22 57.27 57.20 57.10 57.05 57.01 56.89 56.63 56.26
53.62 54.01 54.49 55.07 55.40 55.71 56.02 56.20 56.56 56.97 57.38 57.84 58.30 58.42 58.40 58.49 58.95 58.24 57.48 57.68 58.53 58.94 59.03 58.92 59.05 59.19 59.30 58.98 59.55 60.13 60.58 60.72 60.54 60.40 60.49 60.47 60.47 60.52 60.61 60.74 60.78 60.82 60.67 60.50 60.23 60.12 60.00 60.05 59.73 59.57 59.38 59.17 58.75 58.40 58.11 57.99 57.98 57.86 57.70 57.62 57.53 57.49 57.21 56.60 56.90 57.03 56.94 56.64 56.19
53.64 54.16 54.73 55.32 55.55 56.05 56.50 56.94 57.36 57.63 57.90 58.17 58.49 58.61 58.74 58.73 59.04 58.66 57.97 57.50 58.48 58.89 59.07 59.10 59.22 59.28 59.34 59.50 59.60 59.79 59.97 60.54 60.40 60.34 60.51 60.55 60.58 60.64 60.69 60.87 60.78 60.73 60.53 60.35 60.03 59.80 59.70 59.67 59.60 59.54 59.33 59.16 58.81 58.51 58.22 58.12 58.19 58.03 57.98 57.86 57.82 57.75 57.41 56.92 56.95 57.05 56.98 56.70 56.09
53.47 54.10 54.63 55.17 55.49 56.12 56.66 56.88 57.50 57.81 58.17 58.40 58.63 58.75 58.89 58.73 59.07 59.10 58.84 58.48 58.57 58.74 59.05 59.24 59.29 59.38 59.43 59.57 59.77 59.48 59.37 60.18 60.24 60.32 60.53 60.66 60.75 60.84 60.85 60.91 60.91 60.76 60.48 60.21 59.88 59.79 59.68 59.67 59.46 59.34 59.22 59.07 58.76 58.55 58.40 58.38 58.38 58.43 58.40 58.24 58.11 57.86 57.70 57.49 57.22 57.15 56.97 56.59 56.11
53.39 54.20 54.87 55.41 56.00 56.62 57.16 57.38 57.81 58.17 58.35 58.44 58.62 58.80 58.88 58.84 59.12 59.14 59.06 59.11 58.97 58.99 59.16 59.37 59.39 59.35 59.39 59.66 59.95 59.92 59.70 60.05 60.19 60.30 60.48 60.66 60.84 60.89 60.94 61.00 60.91 60.62 60.34 60.05 59.95 59.76 59.65 59.59 59.43 59.17 59.02 58.65 58.49 58.37 58.32 58.46 58.67 58.74 58.85 58.76 58.58 58.28 57.97 57.58 57.26 56.75 56.42 56.08 56.00
53.58 54.79 56.00 56.81 56.98 57.16 57.39 57.79 57.99 58.26 58.35 58.26 58.53 58.71 58.84 58.90 59.14 59.19 59.10 59.11 59.42 59.31 59.12 59.53 59.47 59.39 59.35 59.62 59.86 60.18 60.23 59.92 60.26 60.43 60.48 60.58 60.64 60.76 60.94 60.96 60.82 60.53 60.29 60.13 60.03 59.78 59.57 59.47 59.26 59.16 58.84 58.43 58.28 58.28 58.38 58.57 58.81 58.93 58.95 59.14 58.87 58.51 58.15 57.42 56.81 56.34 55.91 55.85 55.80
54.56 56.00 56.86 56.72 56.80 56.98 57.08 57.17 57.52 57.81 58.17 58.08 58.35 58.62 58.84 58.87 59.20 59.34 59.29 59.38 59.61 59.47 59.31 59.48 59.58 59.46 59.33 59.52 59.71 60.00 60.19 60.05 60.30 60.43 60.53 60.64 60.69 60.69 60.78 60.83 60.85 60.66 60.32 60.11 59.96 59.75 59.51 59.31 59.16 59.02 58.94 58.55 58.41 58.34 58.36 58.44 58.74 58.90 59.02 58.87 58.43 57.94 57.43 56.71 56.32 55.95 55.66 55.61 55.65
55.81 56.77 56.65 55.25 54.98 54.58 54.72 55.97 57.03 57.74 57.95 58.04 58.46 58.67 58.71 58.89 58.94 59.08 59.32 59.68 59.51 59.50 59.47 59.37 59.73 59.62 59.43 59.35 59.79 59.95 60.05 60.27 60.32 60.48 60.62 60.85 60.96 60.92 60.88 61.03 60.91 60.70 60.40 60.20 60.03 59.88 59.59 59.36 59.17 58.99 58.96 58.65 58.48 58.36 58.30 58.46 58.49 58.66 58.78 58.35 57.55 56.91 56.30 56.17 56.27 56.21 55.94 55.63 55.77
56.40 56.87 56.20 54.77 53.86 53.55 53.95 55.39 56.82 57.43 57.65 57.86 58.28 58.72 58.99 58.99 58.87 58.83 58.88 59.28 59.37 59.44 59.34 59.05 59.44 59.58 59.68 59.56 60.03 60.20 60.27 60.23 60.25 60.42 60.69 60.96 61.05 60.97 60.94 60.99 60.87 60.73 60.47 60.38 59.35 58.67 58.26 58.58 58.95 58.99 58.86 58.68 58.56 58.48 58.49 58.47 58.64 58.62 58.38 57.73 56.78 56.13 56.06 56.47 56.91 57.09 57.01 56.47 55.38
56.82 56.52 55.44 54.22 53.73 53.68 54.35 55.88 56.55 57.08 57.52 57.77 58.24 58.69 59.05 59.15 58.97 58.93 58.70 58.74 58.87 59.21 59.39 58.96 59.23 59.70 59.98 59.79 60.16 60.37 60.49 60.31 60.31 60.31 60.58 60.85 60.88 60.94 60.81 60.82 60.67 60.69 60.10 58.51 53.61 51.90 52.43 54.28 56.51 58.00 58.84 58.80 58.63 58.56 58.48 58.44 58.51 58.35 57.80 57.00 56.50 56.35 56.61 56.83 56.35 55.32 53.88 52.13 50.51
56.33 56.47 55.97 54.40 54.40 54.49 55.12 56.14 56.64 56.90 57.25 57.81 58.24 58.52 58.62 58.44 58.71 58.93 58.92 58.87 58.89 59.25 59.39 59.10 59.20 58.84 58.78 59.81 60.08 60.28 60.42 60.43 60.40 60.40 60.54 60.67 60.61 60.58 60.68 60.64 60.59 60.31 58.66 53.86 48.52 47.44 48.57 49.70 51.31 53.91 56.79 59.30 58.74 58.37 58.30 58.35 58.22 57.88 57.44 56.94 56.98 56.98 56.35 54.88 52.45 50.60 49.20 48.38 47.57
54.84 55.66 56.38 55.55 55.91 55.78 55.74 56.05 56.77 57.12 57.43 57.92 58.51 58.70 58.53 58.12 58.66 58.88 58.92 58.87 59.03 59.30 59.44 59.15 59.25 58.10 57.65 59.79 59.97 60.06 60.20 60.40 60.36 60.36 60.49 60.60 60.47 60.31 60.46 60.46 60.23 59.07 55.66 48.70 46.21 46.03 47.03 47.84 48.66 50.83 54.20 58.81 58.76 58.42 58.26 58.15 57.93 57.53 57.26 57.16 57.07 56.08 54.19 51.45 49.20 47.71 46.89 46.62 46.35
54.64 55.38 56.24 56.50 56.27 56.23 55.91 55.38 55.92 56.55 57.26 57.61 58.29 58.39 58.12 57.97 58.42 58.74 58.87 58.78 58.81 58.96 59.11 59.12 59.08 59.14 59.30 59.89 59.89 59.97 60.15 60.49 60.46 60.51 60.54 60.78 60.42 60.40 60.23 59.88 58.98 55.88 51.28 45.94 45.85 46.39 47.21 47.75 48.39 49.38 51.37 54.92 58.02 58.51 57.90 57.56 56.90 56.50 56.00 55.32 54.32 52.75 51.00 49.24 48.02 47.12 46.13 45.36 44.81
55.10 54.91 54.76 55.79 56.28 56.09 55.28 54.22 54.44 55.37 56.58 57.72 57.97 58.38 58.56 58.33 58.51 58.51 58.51 58.51 58.61 58.71 58.85 58.99 59.24 59.54 59.87 59.86 60.04 60.20 60.42 60.67 60.42 60.15 60.01 59.89 59.32 58.66 57.90 57.05 55.39 51.65 47.48 44.94 46.30 47.03 47.57 48.02 48.39 48.66 49.52 51.46 55.91 57.25 56.75 55.68 54.42 53.34 52.44 51.45 50.59 49.69 48.88 48.16 47.35 46.40 45.45 44.59 43.91
55.14 54.32 53.59 54.09 54.58 54.76 54.93 54.87 55.27 55.80 56.52 57.43 57.88 58.25 58.43 58.56 58.33 58.33 58.29 58.34 58.25 58.12 58.08 58.35 58.95 59.35 59.83 60.25 60.49 60.49 60.27 59.83 58.98 58.40 57.90 57.40 56.73 56.05 55.34 54.31 53.81 50.92 47.48 45.21 46.57 47.30 47.66 47.84 47.66 47.66 47.93 48.57 51.42 52.94 52.84 51.31 50.05 48.92 47.98 47.53 47.35 47.07 46.76 46.35 45.72 45.18 44.68 44.00 43.19
55.03 55.03 54.64 54.22 54.35 55.07 55.59 55.36 55.00 54.91 54.95 55.28 55.59 55.91 56.18 56.68 56.95 57.13 56.91 55.91 55.11 54.40 54.58 56.33 57.68 58.71 59.41 59.97 59.68 58.84 57.81 56.78 56.19 55.78 55.46 55.00 53.85 53.67 53.99 54.12 53.31 50.47 47.21 44.94 45.94 46.48 46.67 46.57 45.94 45.67 45.49 45.53 47.21 48.25 48.29 46.80 45.99 45.41 45.00 44.64 44.55 44.51 44.51 44.37 44.28 44.10 43.83 43.56 42.84
54.15 54.64 55.22 55.72 55.19 54.74 54.29 53.66 53.35 53.17 53.08 52.94 52.80 52.71 52.67 52.90 53.44 53.49 53.12 52.00 51.68 51.86 52.68 54.39 55.82 56.95 57.30 57.12 56.23 55.37 54.61 54.07 53.89 53.57 53.34 53.15 53.02 52.94 52.76 52.67 51.77 48.93 45.67 43.95 44.58 44.72 44.72 44.40 43.77 43.27 43.05 43.10 43.91 44.55 44.46 43.43 42.80 42.30 41.89 41.71 41.80 42.03 42.21 42.38 42.29 42.43 42.48 42.66 42.39
54.50 54.37 54.28 54.15 53.26 52.54 52.00 51.91 51.95 51.81 51.58 51.18 50.91 50.68 50.50 50.42 50.46 50.33 50.14 49.87 50.10 50.68 51.58 52.31 53.12 53.52 53.48 53.12 52.49 52.13 51.86 51.58 51.36 50.96 50.46 50.64 50.72 50.68 50.41 49.83 49.15 46.48 43.72 42.73 42.86 42.82 42.60 42.28 41.79 41.25 41.07 41.03 42.02 42.39 42.12 41.40 40.68 40.00 39.59 39.41 39.55 39.78 40.01 40.28 40.45 40.59 40.86 41.00 41.09
54.19 53.29 52.40 51.68 51.18 51.00 50.87 50.91 50.86 50.59 50.27 49.82 49.60 49.33 49.01 48.74 48.25 47.93 47.53 47.35 47.62 48.11 48.61 49.24 49.69 50.05 50.32 50.32 50.09 49.87 49.56 49.20 49.33 49.33 49.15 48.97 48.56 48.07 47.75 47.53 46.85 44.50 42.14 41.51 41.47 41.34 41.07 40.76 40.45 40.14 39.96 39.87 40.90 41.09 40.59 39.69 39.06 38.46 38.01 37.78 37.92 38.19 38.42 38.74 38.92 39.10 39.24 39.51 39.60
52.62 51.67 50.91 50.46 50.05 49.96 49.87 49.87 49.73 49.51 49.06 48.56 48.20 47.84 47.44 46.98 46.40 45.99 45.54 45.13 45.31 45.90 46.44 46.80 47.21 47.53 47.80 48.25 48.34 48.07 47.84 47.35 47.48 47.30 46.99 46.54 45.64 44.55 43.74 43.64 43.19 41.92 40.84 40.75 40.62 40.49 40.23 40.05 39.87 39.65 39.65 39.74 40.32 40.01 39.24 38.30 37.57 37.03 36.80 36.62 36.66 36.80 37.07 37.30 37.66 37.89 38.34 38.57 38.57
51.13 50.41 49.78 49.46 49.19 49.01 48.88 48.70 48.56 48.20 47.71 47.12 46.58 46.26 45.99 45.72 45.45 45.22 44.91 44.32 44.64 45.05 45.36 45.50 45.72 45.90 45.90 45.99 46.26 46.26 46.08 46.31 46.04 45.77 45.36 44.78 43.71 42.53 41.53 40.84 40.75 40.25 40.02 40.17 40.09 40.01 39.96 39.79 39.57 39.57 39.88 40.41 40.23 39.65 38.61 37.62 36.76 36.09 35.82 35.50 35.49 35.49 35.72 36.08 36.35 36.76 37.17 37.53 37.76
50.18 49.55 48.92 48.61 48.29 48.07 47.98 47.79 47.39 46.81 46.35 45.95 45.54 45.32 45.09 45.04 45.09 45.04 44.82 44.37 44.42 44.15 43.92 43.79 43.74 43.65 43.61 43.74 43.87 44.23 44.73 45.23 44.91 44.37 43.74 42.90 42.09 41.05 40.19 39.72 39.75 39.34 39.03 39.59 39.74 39.87 39.79 39.75 39.66 39.80 40.07 40.41 39.69 38.79 37.89 37.17 36.31 35.50 34.92 34.51 34.41 34.55 34.82 35.09 35.27 35.50 35.86 36.13 36.36
49.68 49.01 48.42 47.88 47.48 47.30 47.08 46.85 46.31 45.82 45.36 45.05 44.91 44.78 44.73 44.64 44.73 44.59 44.28 43.51 43.47 42.84 42.26 41.99 41.85 41.76 41.85 41.90 42.07 42.21 42.57 43.03 42.76 42.35 41.81 41.23 40.70 40.11 39.38 38.87 38.81 38.49 38.40 38.87 39.28 39.60 39.75 39.84 39.76 39.86 40.08 39.97 39.29 38.48 37.58 36.63 35.68 34.78 34.19 33.69 33.63 33.78 34.10 34.50 34.59 34.68 34.82 34.96 35.16
48.83 48.33 47.70 47.21 46.76 46.49 46.22 45.82 45.41 45.01 44.64 44.37 44.32 44.19 44.10 43.92 43.78 43.65 43.42 42.75 42.63 42.00 41.36 40.82 40.68 40.64 40.68 40.51 40.23 39.87 39.78 39.92 40.06 39.97 39.92 39.78 39.52 39.03 38.44 38.01 37.86 37.67 37.76 38.14 38.74 39.11 39.39 39.49 39.41 39.51 39.46 39.35 39.03 38.31 37.27 36.09 34.92 34.06 33.47 33.15 32.91 32.88 33.20 33.65 33.92 34.05 34.23 34.56 35.14
47.93 47.48 46.90 46.49 46.09 45.68 45.23 44.87 44.56 44.38 44.15 43.74 43.34 43.06 42.84 42.47 42.29 42.17 42.13 41.77 41.55 41.20 40.56 39.96 39.78 39.69 39.52 38.85 38.44 37.89 37.44 37.44 37.85 37.94 37.89 37.93 37.98 37.81 37.54 37.21 37.10 37.00 37.09 37.60 38.07 38.44 38.81 38.96 38.97 39.02 39.06 39.17 38.90 38.13 37.09 35.87 34.56 33.70 33.11 32.79 32.51 32.35 32.40 32.67 33.02 33.24 33.42 33.74 34.36
46.58 46.09 45.64 45.19 45.01 44.65 44.24 43.84 43.70 43.48 43.30 42.98 42.62 42.16 41.80 41.40 41.22 41.28 41.11 40.83 40.39 39.98 39.48 38.97 38.66 38.40 38.04 37.50 36.92 36.18 35.55 35.45 35.86 36.27 36.54 36.58 36.81 36.99 36.95 36.63 36.61 36.56 36.83 37.38 37.80 38.08 38.40 38.51 38.70 38.84 38.92 38.76 38.67 38.04 37.09 35.87 34.47 33.43 32.71 32.40 32.35 32.06 31.90 31.90 32.15 32.40 32.75 32.88 33.29
MSLP
994.57 994.69 994.81 994.93 995.09 995.29 995.45 995.65 995.85 996.05 996.25 996.45 996.61 996.81 997.05 997.29 997.53 997.73 997.89 998.09 998.29 998.45 998.61 998.77 999.01 999.21 999.49 999.77 1000.01 1000.21 1000.45 1000.65 1000.89 1001.05 1001.25 1001.41 1001.53 1001.65 1001.81 1002.01 1002.17 1002.45 1002.65 1002.93 1003.21 1003.53 1003.89 1004.29 1004.61 1004.77 1004.81 1004.97 1005.73 1006.41 1006.81 1007.01 1007.41 1007.93 1008.45 1008.73 1008.69 1008.29 1007.77 1007.37 1007.33 1007.45 1007.61 1007.73 1007.89
994.17 994.29 994.45 994.61 994.73 994.97 995.21 995.45 995.61 995.81 996.01 996.13 996.29 996.53 996.73 997.01 997.21 997.45 997.69 997.89 998.01 998.17 998.41 998.61 998.85 999.09 999.29 999.57 999.77 1000.01 1000.21 1000.45 1000.61 1000.81 1001.01 1001.17 1001.25 1001.41 1001.57 1001.81 1002.01 1002.17 1002.41 1002.65 1002.89 1003.21 1003.57 1004.01 1004.29 1004.45 1004.53 1004.77 1005.69 1006.41 1006.77 1006.93 1007.25 1007.81 1008.33 1008.69 1008.81 1008.61 1008.17 1007.61 1007.33 1007.29 1007.45 1007.57 1007.81
993.81 993.97 994.17 994.29 994.45 994.65 994.89 995.17 995.37 995.57 995.73 995.93 996.13 996.29 996.49 996.73 996.93 997.17 997.41 997.61 997.81 998.01 998.29 998.45 998.69 998.89 999.13 999.33 999.57 999.77 1000.01 1000.17 1000.41 1000.61 1000.73 1000.89 1001.01 1001.21 1001.41 1001.57 1001.77 1002.01 1002.21 1002.45 1002.65 1002.93 1003.29 1003.61 1003.97 1004.13 1004.29 1004.77 1005.73 1006.37 1006.65 1006.73 1007.01 1007.45 1008.01 1008.49 1008.73 1008.73 1008.45 1007.89 1007.41 1007.25 1007.37 1007.57 1007.77
993.45 993.61 993.81 993.97 994.09 994.29 994.53 994.77 995.05 995.29 995.49 995.73 995.93 996.13 996.29 996.49 996.69 996.89 997.17 997.45 997.73 997.93 998.09 998.25 998.53 998.73 998.93 999.13 999.37 999.57 999.77 999.97 1000.17 1000.37 1000.53 1000.69 1000.85 1001.01 1001.17 1001.37 1001.57 1001.81 1002.01 1002.21 1002.45 1002.73 1003.01 1003.37 1003.65 1003.85 1004.17 1004.81 1005.65 1006.13 1006.29 1006.41 1006.65 1007.01 1007.57 1008.17 1008.53 1008.61 1008.37 1007.89 1007.41 1007.17 1007.29 1007.49 1007.73
993.17 993.29 993.45 993.57 993.73 994.01 994.25 994.49 994.81 995.05 995.29 995.53 995.73 995.97 996.17 996.33 996.53 996.73 997.01 997.29 997.49 997.69 997.89 998.01 998.29 998.53 998.73 998.93 999.17 999.37 999.57 999.81 1000.01 1000.17 1000.33 1000.49 1000.61 1000.77 1000.93 1001.13 1001.37 1001.57 1001.77 1001.97 1002.21 1002.53 1002.85 1003.09 1003.33 1003.57 1004.01 1004.73 1005.37 1005.73 1005.85 1006.01 1006.13 1006.45 1007.05 1007.77 1008.17 1008.29 1008.17 1007.77 1007.33 1007.13 1007.17 1007.41 1007.69
992.81 992.97 993.17 993.29 993.53 993.81 994.05 994.29 994.61 994.85 995.09 995.33 995.57 995.73 995.97 996.17 996.37 996.61 996.85 997.09 997.25 997.45 997.69 997.89 998.13 998.37 998.57 998.77 998.97 999.17 999.41 999.61 999.85 1000.01 1000.13 1000.29 1000.41 1000.57 1000.73 1000.89 1001.13 1001.37 1001.57 1001.77 1002.05 1002.33 1002.61 1002.85 1003.01 1003.25 1003.77 1004.49 1004.97 1005.25 1005.41 1005.53 1005.57 1006.01 1006.69 1007.45 1007.81 1007.97 1007.97 1007.73 1007.29 1007.05 1007.13 1007.37 1007.69
992.53 992.73 992.93 993.17 993.37 993.65 993.93 994.17 994.41 994.65 994.93 995.17 995.33 995.49 995.69 995.93 996.17 996.41 996.61 996.85 997.01 997.29 997.57 997.81 998.01 998.17 998.41 998.61 998.77 999.01 999.21 999.45 999.61 999.73 999.89 1000.05 1000.17 1000.29 1000.45 1000.69 1000.89 1001.17 1001.37 1001.57 1001.89 1002.17 1002.33 1002.45 1002.53 1002.89 1003.45 1004.13 1004.57 1004.81 1004.93 1004.97 1005.13 1005.61 1006.29 1006.93 1007.33 1007.57 1007.73 1007.65 1007.25 1007.01 1007.09 1007.33 1007.65
992.33 992.53 992.73 992.97 993.21 993.49 993.77 994.05 994.29 994.53 994.73 994.97 995.17 995.29 995.45 995.69 995.97 996.21 996.45 996.69 996.89 997.13 997.37 997.57 997.81 997.97 998.13 998.33 998.57 998.77 999.01 999.17 999.37 999.53 999.65 999.77 999.89 1000.01 1000.21 1000.45 1000.69 1000.89 1001.17 1001.45 1001.73 1001.93 1002.01 1002.01 1002.05 1002.45 1003.09 1003.69 1004.05 1004.33 1004.49 1004.61 1004.93 1005.25 1005.57 1006.05 1006.61 1007.05 1007.29 1007.33 1007.13 1006.97 1007.01 1007.25 1007.57
992.21 992.37 992.61 992.85 993.09 993.33 993.61 993.89 994.13 994.33 994.57 994.77 994.97 995.13 995.29 995.53 995.81 996.05 996.29 996.49 996.69 996.89 997.17 997.41 997.57 997.73 997.93 998.13 998.33 998.57 998.73 998.93 999.09 999.25 999.37 999.45 999.61 999.77 999.97 1000.17 1000.45 1000.73 1001.01 1001.29 1001.45 1001.57 1001.57 1001.57 1001.69 1002.13 1002.73 1003.21 1003.61 1003.89 1004.17 1004.45 1004.81 1004.89 1004.89 1005.05 1005.61 1006.29 1006.81 1007.01 1006.93 1006.85 1006.89 1007.17 1007.53
992.05 992.29 992.49 992.73 993.01 993.25 993.49 993.77 993.97 994.17 994.41 994.61 994.89 995.05 995.25 995.45 995.65 995.89 996.09 996.29 996.53 996.73 996.97 997.17 997.41 997.57 997.77 997.97 998.17 998.33 998.49 998.69 998.85 998.97 999.09 999.29 999.41 999.57 999.73 999.93 1000.21 1000.49 1000.77 1001.01 1001.13 1001.17 1001.17 1001.09 1001.33 1001.89 1002.45 1002.85 1003.25 1003.57 1003.97 1004.33 1004.69 1004.85 1004.77 1004.61 1004.89 1005.57 1006.29 1006.69 1006.73 1006.77 1006.89 1007.13 1007.45
992.01 992.17 992.41 992.65 992.93 993.17 993.45 993.73 993.93 994.13 994.29 994.57 994.85 995.01 995.21 995.41 995.57 995.73 995.89 996.17 996.41 996.61 996.81 997.01 997.21 997.41 997.57 997.81 997.97 998.13 998.29 998.45 998.61 998.73 998.89 999.05 999.21 999.37 999.57 999.73 1000.01 1000.25 1000.45 1000.65 1000.77 1000.81 1000.73 1000.73 1001.09 1001.69 1002.25 1002.65 1003.09 1003.49 1003.89 1004.25 1004.61 1004.73 1004.73 1004.53 1004.61 1005.17 1005.89 1006.41 1006.65 1006.77 1006.89 1007.13 1007.45
991.97 992.17 992.37 992.61 992.89 993.17 993.41 993.61 993.89 994.09 994.29 994.57 994.81 995.01 995.17 995.29 995.45 995.61 995.81 996.01 996.25 996.45 996.61 996.85 997.05 997.25 997.45 997.65 997.81 997.97 998.13 998.25 998.37 998.49 998.65 998.85 999.01 999.17 999.37 999.57 999.77 999.97 1000.17 1000.33 1000.45 1000.45 1000.37 1000.45 1000.89 1001.45 1002.05 1002.53 1002.97 1003.41 1003.77 1004.09 1004.45 1004.61 1004.57 1004.45 1004.49 1004.89 1005.57 1006.21 1006.61 1006.81 1006.89 1007.09 1007.45
991.97 992.17 992.41 992.61 992.85 993.09 993.33 993.57 993.81 994.05 994.29 994.53 994.73 994.93 995.09 995.25 995.41 995.57 995.73 995.93 996.13 996.33 996.61 996.77 996.93 997.09 997.29 997.45 997.61 997.77 997.93 998.09 998.17 998.29 998.45 998.65 998.85 999.01 999.21 999.41 999.53 999.73 999.89 1000.09 1000.17 1000.13 1000.05 1000.17 1000.69 1001.25 1001.81 1002.33 1002.77 1003.17 1003.53 1003.85 1004.17 1004.33 1004.37 1004.33 1004.41 1004.81 1005.45 1006.05 1006.53 1006.81 1006.97 1007.13 1007.49
992.01 992.21 992.45 992.65 992.89 993.09 993.33 993.57 993.85 994.09 994.29 994.49 994.73 994.89 995.05 995.21 995.33 995.49 995.65 995.85 996.09 996.29 996.53 996.73 996.85 996.97 997.13 997.29 997.45 997.65 997.81 997.93 998.01 998.17 998.29 998.45 998.65 998.89 999.05 999.17 999.29 999.53 999.73 999.89 999.93 999.85 999.81 1000.01 1000.49 1001.01 1001.57 1002.05 1002.53 1002.89 1003.25 1003.57 1003.85 1004.01 1004.13 1004.17 1004.29 1004.69 1005.29 1005.93 1006.45 1006.73 1006.89 1007.17 1007.57
992.17 992.33 992.53 992.73 992.93 993.17 993.41 993.65 993.93 994.17 994.29 994.45 994.69 994.85 995.01 995.17 995.29 995.45 995.61 995.81 996.01 996.25 996.45 996.61 996.73 996.89 997.01 997.17 997.33 997.53 997.69 997.81 997.89 998.01 998.17 998.29 998.49 998.69 998.81 998.89 999.13 999.33 999.57 999.69 999.73 999.61 999.57 999.73 1000.25 1000.77 1001.29 1001.81 1002.25 1002.61 1003.01 1003.29 1003.61 1003.85 1003.97 1004.01 1004.17 1004.53 1005.17 1005.85 1006.37 1006.61 1006.73 1007.09 1007.57
992.33 992.49 992.65 992.89 993.09 993.37 993.61 993.81 993.97 994.17 994.29 994.45 994.61 994.77 994.93 995.05 995.21 995.41 995.61 995.81 996.01 996.17 996.33 996.45 996.61 996.73 996.97 997.17 997.29 997.45 997.61 997.73 997.81 997.89 998.01 998.13 998.29 998.45 998.57 998.73 998.93 999.17 999.33 999.49 999.49 999.45 999.49 999.69 1000.09 1000.57 1001.01 1001.53 1001.97 1002.33 1002.73 1003.09 1003.45 1003.73 1003.93 1004.01 1004.17 1004.49 1005.09 1005.73 1006.17 1006.45 1006.65 1007.01 1007.53
992.57 992.73 992.89 993.13 993.33 993.57 993.73 993.89 993.97 994.09 994.25 994.41 994.53 994.69 994.85 994.97 995.17 995.41 995.61 995.77 995.93 996.05 996.17 996.29 996.45 996.69 996.93 997.13 997.29 997.41 997.53 997.61 997.65 997.73 997.85 997.93 998.13 998.29 998.41 998.57 998.77 999.01 999.17 999.29 999.33 999.33 999.49 999.77 1000.17 1000.57 1000.89 1001.29 1001.73 1002.05 1002.45 1002.89 1003.29 1003.65 1003.89 1004.05 1004.25 1004.61 1005.09 1005.69 1006.01 1006.29 1006.65 1007.13 1007.53
992.97 993.05 993.21 993.41 993.53 993.61 993.73 993.81 993.89 994.01 994.17 994.29 994.45 994.61 994.77 994.93 995.17 995.37 995.57 995.73 995.81 995.93 996.09 996.25 996.41 996.61 996.85 997.05 997.17 997.29 997.41 997.45 997.53 997.57 997.69 997.85 998.01 998.17 998.29 998.49 998.73 998.89 999.05 999.17 999.17 999.29 999.49 999.89 1000.33 1000.73 1001.05 1001.33 1001.57 1001.85 1002.17 1002.61 1003.13 1003.57 1003.89 1004.17 1004.41 1004.73 1005.17 1005.57 1005.93 1006.29 1006.77 1007.29 1007.61
993.33 993.41 993.53 993.57 993.69 993.73 993.73 993.73 993.85 993.93 994.09 994.25 994.45 994.61 994.77 994.97 995.13 995.29 995.45 995.57 995.73 995.85 996.01 996.17 996.37 996.57 996.73 996.93 997.05 997.17 997.29 997.33 997.41 997.49 997.61 997.81 998.01 998.17 998.29 998.49 998.73 998.89 999.05 999.21 999.25 999.33 999.57 1000.01 1000.45 1000.89 1001.29 1001.53 1001.65 1001.73 1001.97 1002.37 1002.97 1003.53 1004.01 1004.33 1004.65 1004.97 1005.29 1005.57 1006.01 1006.49 1007.01 1007.45 1007.73
993.45 993.57 993.65 993.73 993.73 993.69 993.65 993.69 993.77 993.93 994.09 994.25 994.45 994.61 994.81 994.97 995.05 995.17 995.33 995.49 995.61 995.77 995.89 996.09 996.29 996.49 996.69 996.81 996.97 997.09 997.17 997.25 997.29 997.45 997.65 997.85 998.01 998.17 998.33 998.53 998.73 998.89 999.09 999.25 999.33 999.49 999.73 1000.09 1000.49 1000.89 1001.29 1001.61 1001.73 1001.77 1001.89 1002.29 1002.93 1003.57 1004.17 1004.61 1004.97 1005.21 1005.45 1005.81 1006.37 1006.93 1007.41 1007.65 1007.81
993.45 993.45 993.49 993.49 993.53 993.53 993.57 993.65 993.81 993.97 994.13 994.29 994.49 994.61 994.73 994.89 995.01 995.09 995.21 995.37 995.53 995.73 995.89 996.01 996.17 996.37 996.57 996.73 996.89 997.01 997.13 997.17 997.29 997.45 997.65 997.89 998.01 998.17 998.29 998.49 998.69 998.89 999.09 999.29 999.41 999.57 999.85 1000.17 1000.49 1000.93 1001.33 1001.69 1001.81 1001.89 1002.01 1002.29 1002.89 1003.57 1004.29 1004.89 1005.33 1005.57 1005.89 1006.37 1006.97 1007.45 1007.73 1007.85 1007.89
993.29 993.21 993.21 993.29 993.41 993.49 993.57 993.73 993.89 994.05 994.21 994.37 994.45 994.61 994.73 994.85 994.93 995.05 995.17 995.29 995.45 995.65 995.85 996.01 996.13 996.29 996.45 996.61 996.77 996.93 997.05 997.17 997.29 997.45 997.65 997.89 998.01 998.17 998.33 998.49 998.65 998.89 999.09 999.29 999.41 999.61 999.89 1000.17 1000.49 1000.89 1001.37 1001.73 1001.93 1002.05 1002.17 1002.41 1002.89 1003.61 1004.41 1005.09 1005.61 1006.09 1006.57 1007.09 1007.53 1007.77 1007.89 1007.97 1008.01
993.01 993.09 993.21 993.41 993.49 993.61 993.73 993.85 993.97 994.13 994.25 994.37 994.45 994.61 994.69 994.77 994.89 995.01 995.17 995.29 995.45 995.57 995.73 995.93 996.05 996.21 996.37 996.57 996.73 996.89 997.01 997.13 997.29 997.45 997.65 997.85 998.01 998.17 998.29 998.45 998.61 998.81 999.05 999.25 999.41 999.61 999.89 1000.17 1000.57 1000.97 1001.37 1001.73 1002.01 1002.21 1002.37 1002.61 1003.05 1003.73 1004.57 1005.29 1006.01 1006.61 1007.13 1007.49 1007.73 1007.97 1008.13 1008.25 1008.25
993.01 993.13 993.29 993.49 993.65 993.73 993.81 993.89 994.01 994.17 994.25 994.33 994.45 994.57 994.65 994.73 994.89 995.01 995.09 995.17 995.29 995.49 995.69 995.85 996.01 996.17 996.29 996.49 996.65 996.77 996.89 997.01 997.25 997.45 997.65 997.89 998.01 998.17 998.29 998.41 998.57 998.73 999.01 999.25 999.41 999.57 999.85 1000.21 1000.61 1001.01 1001.41 1001.73 1002.05 1002.29 1002.57 1002.89 1003.33 1003.97 1004.73 1005.57 1006.29 1006.93 1007.37 1007.61 1007.81 1008.01 1008.25 1008.45 1008.49
993.09 993.25 993.41 993.57 993.73 993.81 993.89 993.93 994.01 994.13 994.21 994.29 994.41 994.53 994.61 994.73 994.85 994.97 995.01 995.13 995.25 995.37 995.57 995.77 995.89 996.01 996.17 996.37 996.49 996.61 996.73 996.89 997.09 997.37 997.61 997.81 997.97 998.17 998.29 998.45 998.65 998.81 999.01 999.33 999.61 999.85 1000.05 1000.33 1000.69 1001.01 1001.37 1001.69 1002.05 1002.45 1002.85 1003.21 1003.69 1004.29 1005.01 1005.81 1006.53 1007.05 1007.41 1007.65 1007.89 1008.17 1008.45 1008.61 1008.77
993.17 993.29 993.45 993.61 993.73 993.81 993.89 993.93 994.01 994.09 994.17 994.29 994.37 994.45 994.57 994.65 994.73 994.85 994.93 995.05 995.17 995.29 995.45 995.65 995.77 995.89 996.01 996.21 996.41 996.57 996.69 996.81 997.01 997.25 997.45 997.65 997.89 998.13 998.29 998.45 998.61 998.85 999.17 999.49 999.85 1000.09 1000.33 1000.65 1000.89 1001.17 1001.41 1001.69 1002.09 1002.61 1003.17 1003.61 1004.13 1004.69 1005.33 1006.01 1006.57 1006.97 1007.29 1007.65 1008.01 1008.33 1008.57 1008.69 1008.77
993.25 993.33 993.45 993.57 993.69 993.81 993.89 993.93 994.01 994.09 994.17 994.29 994.33 994.41 994.45 994.53 994.61 994.73 994.81 994.89 995.01 995.17 995.29 995.49 995.65 995.73 995.89 996.01 996.25 996.45 996.61 996.77 997.01 997.17 997.33 997.49 997.77 998.01 998.21 998.41 998.65 998.93 999.29 999.69 1000.01 1000.29 1000.61 1000.89 1001.17 1001.33 1001.45 1001.69 1002.17 1002.69 1003.29 1003.89 1004.49 1005.09 1005.69 1006.17 1006.57 1006.89 1007.25 1007.61 1008.01 1008.33 1008.57 1008.69 1008.73
993.33 993.41 993.49 993.57 993.69 993.81 993.89 993.97 994.01 994.05 994.17 994.21 994.29 994.33 994.41 994.45 994.57 994.65 994.73 994.77 994.89 995.05 995.21 995.37 995.49 995.57 995.69 995.85 996.09 996.29 996.45 996.69 996.97 997.13 997.25 997.41 997.73 997.97 998.17 998.45 998.73 999.13 999.49 999.85 1000.17 1000.45 1000.73 1001.05 1001.29 1001.45 1001.57 1001.85 1002.25 1002.81 1003.41 1004.09 1004.77 1005.37 1005.89 1006.29 1006.65 1007.01 1007.29 1007.65 1007.97 1008.25 1008.49 1008.69 1008.85
993.37 993.45 993.53 993.61 993.69 993.81 993.89 993.97 994.01 994.05 994.13 994.17 994.17 994.25 994.33 994.41 994.49 994.61 994.61 994.69 994.81 994.97 995.05 995.17 995.29 995.41 995.53 995.69 995.89 996.13 996.37 996.61 996.89 997.09 997.29 997.45 997.77 998.09 998.37 998.65 999.01 999.45 999.77 1000.01 1000.25 1000.57 1000.89 1001.13 1001.37 1001.57 1001.77 1002.09 1002.53 1003.05 1003.69 1004.33 1004.97 1005.49 1005.97 1006.41 1006.73 1007.09 1007.41 1007.73 1007.97 1008.21 1008.45 1008.65 1008.89
993.45 993.49 993.57 993.65 993.69 993.73 993.89 993.93 993.97 994.01 994.01 994.09 994.13 994.17 994.21 994.33 994.45 994.53 994.61 994.65 994.77 994.85 994.89 995.05 995.17 995.21 995.29 995.45 995.73 996.01 996.33 996.65 996.93 997.13 997.29 997.49 997.89 998.25 998.61 998.97 999.37 999.73 999.97 1000.09 1000.33 1000.65 1000.93 1001.21 1001.49 1001.81 1002.17 1002.49 1002.89 1003.45 1004.09 1004.69 1005.25 1005.73 1006.17 1006.61 1006.93 1007.25 1007.57 1007.85 1008.05 1008.25 1008.45 1008.65 1008.97
993.49 993.57 993.61 993.69 993.69 993.73 993.81 993.89 993.93 993.97 994.01 994.09 994.13 994.13 994.17 994.33 994.45 994.53 994.65 994.77 994.85 994.81 994.85 994.97 995.13 995.17 995.25 995.37 995.73 996.09 996.45 996.85 997.13 997.21 997.29 997.53 998.01 998.45 998.89 999.25 999.61 999.89 1000.13 1000.25 1000.49 1000.77 1001.13 1001.45 1001.85 1002.21 1002.61 1003.01 1003.45 1004.01 1004.57 1005.09 1005.53 1005.97 1006.41 1006.85 1007.17 1007.45 1007.73 1007.93 1008.13 1008.29 1008.49 1008.73 1009.01
993.49 993.57 993.65 993.69 993.73 993.81 993.89 993.97 994.01 994.05 994.13 994.17 994.21 994.25 994.33 994.53 994.69 994.81 994.97 995.01 994.93 994.89 994.89 995.09 995.25 995.37 995.49 995.69 996.01 996.37 996.73 997.05 997.29 997.33 997.41 997.73 998.17 998.69 999.09 999.45 999.81 1000.09 1000.29 1000.45 1000.73 1001.05 1001.41 1001.81 1002.29 1002.69 1003.09 1003.53 1004.01 1004.49 1005.01 1005.45 1005.89 1006.33 1006.77 1007.17 1007.45 1007.73 1007.89 1008.09 1008.29 1008.45 1008.65 1008.89 1009.09
993.57 993.65 993.73 993.81 993.89 993.97 994.05 994.13 994.13 994.17 994.21 994.33 994.41 994.49 994.61 994.85 995.05 995.21 995.29 995.21 995.09 995.05 995.13 995.29 995.49 995.69 995.81 995.97 996.29 996.69 997.01 997.25 997.41 997.53 997.69 998.01 998.45 998.89 999.33 999.77 1000.13 1000.37 1000.57 1000.73 1001.05 1001.41 1001.77 1002.21 1002.69 1003.17 1003.57 1004.01 1004.49 1004.93 1005.37 1005.77 1006.29 1006.77 1007.21 1007.57 1007.85 1008.01 1008.17 1008.29 1008.49 1008.73 1008.89 1009.09 1009.29
993.65 993.77 993.89 993.97 994.05 994.13 994.21 994.29 994.29 994.29 994.33 994.45 994.61 994.77 994.97 995.21 995.45 995.57 995.57 995.49 995.45 995.53 995.61 995.73 995.81 995.89 996.05 996.21 996.53 996.89 997.17 997.41 997.61 997.81 998.09 998.45 998.81 999.25 999.73 1000.17 1000.61 1000.81 1000.93 1001.05 1001.37 1001.73 1002.17 1002.61 1003.05 1003.49 1003.93 1004.41 1004.85 1005.29 1005.73 1006.17 1006.69 1007.17 1007.57 1007.89 1008.13 1008.29 1008.49 1008.65 1008.89 1009.05 1009.21 1009.33 1009.49
993.73 993.89 993.97 994.09 994.17 994.29 994.29 994.33 994.37 994.45 994.53 994.69 994.89 995.17 995.45 995.65 995.73 995.81 995.85 995.85 995.89 995.97 996.05 996.13 996.09 996.17 996.37 996.65 996.89 997.13 997.37 997.69 997.97 998.25 998.53 998.81 999.21 999.69 1000.25 1000.85 1001.29 1001.41 1001.33 1001.33 1001.69 1002.13 1002.57 1002.97 1003.33 1003.69 1004.09 1004.61 1005.17 1005.69 1006.13 1006.53 1007.01 1007.45 1007.77 1008.05 1008.33 1008.61 1008.89 1009.05 1009.25 1009.41 1009.49 1009.57 1009.69
993.81 993.89 994.01 994.21 994.33 994.41 994.45 994.45 994.49 994.61 994.73 994.97 995.29 995.57 995.85 995.97 996.01 996.05 996.09 996.05 996.09 996.17 996.29 996.29 996.29 996.45 996.73 997.13 997.37 997.57 997.81 998.09 998.41 998.73 998.97 999.21 999.57 1000.17 1000.85 1001.45 1001.89 1001.97 1001.85 1001.81 1002.09 1002.53 1002.89 1003.17 1003.41 1003.69 1004.13 1004.73 1005.41 1005.97 1006.41 1006.81 1007.29 1007.65 1007.97 1008.25 1008.61 1008.93 1009.17 1009.41 1009.57 1009.69 1009.77 1009.85 1009.89
993.89 994.01 994.17 994.33 994.49 994.61 994.61 994.61 994.69 994.85 995.05 995.33 995.65 995.85 995.97 996.09 996.17 996.21 996.21 996.17 996.17 996.25 996.37 996.45 996.61 996.85 997.17 997.53 997.89 998.21 998.45 998.65 998.89 999.17 999.49 999.77 1000.17 1000.65 1001.29 1001.89 1002.29 1002.49 1002.49 1002.45 1002.61 1002.89 1003.13 1003.17 1003.33 1003.61 1004.13 1004.85 1005.57 1006.17 1006.61 1006.97 1007.41 1007.81 1008.17 1008.53 1008.89 1009.25 1009.49 1009.65 1009.85 1009.97 1010.01 1010.09 1010.17
994.05 994.17 994.33 994.49 994.69 994.77 994.85 994.89 994.97 995.17 995.45 995.73 995.93 996.01 996.01 996.09 996.25 996.37 996.33 996.25 996.25 996.41 996.61 996.77 997.05 997.37 997.65 997.93 998.33 998.77 999.17 999.33 999.53 999.81 1000.17 1000.53 1000.77 1001.09 1001.57 1002.17 1002.65 1002.97 1003.05 1003.09 1003.13 1003.17 1003.17 1003.21 1003.33 1003.61 1004.17 1004.89 1005.53 1006.09 1006.57 1007.05 1007.53 1007.97 1008.41 1008.85 1009.25 1009.53 1009.73 1009.89 1010.01 1010.17 1010.29 1010.45 1010.49
994.37 994.45 994.57 994.73 994.89 995.01 995.09 995.17 995.33 995.53 995.73 995.93 996.05 996.09 996.13 996.17 996.41 996.57 996.61 996.53 996.49 996.61 996.89 997.17 997.57 997.89 998.13 998.37 998.81 999.33 999.77 1000.05 1000.25 1000.49 1000.89 1001.29 1001.53 1001.69 1001.89 1002.45 1003.01 1003.37 1003.57 1003.57 1003.49 1003.45 1003.37 1003.37 1003.57 1003.85 1004.29 1004.81 1005.45 1006.01 1006.57 1007.13 1007.65 1008.17 1008.61 1009.01 1009.41 1009.73 1009.97 1010.17 1010.33 1010.49 1010.69 1010.85 1010.89
994.73 994.81 994.85 994.97 995.09 995.21 995.33 995.49 995.69 995.85 995.97 996.09 996.17 996.25 996.29 996.45 996.69 996.85 996.89 996.89 996.89 997.01 997.25 997.65 998.05 998.33 998.57 998.85 999.25 999.81 1000.29 1000.69 1000.97 1001.29 1001.65 1002.01 1002.29 1002.37 1002.49 1002.85 1003.29 1003.69 1003.89 1003.93 1003.85 1003.73 1003.69 1003.73 1003.85 1004.05 1004.37 1004.85 1005.45 1006.01 1006.57 1007.13 1007.69 1008.25 1008.73 1009.17 1009.49 1009.89 1010.29 1010.57 1010.73 1010.89 1011.09 1011.29 1011.41
995.17 995.21 995.25 995.29 995.45 995.53 995.61 995.77 995.97 996.17 996.29 996.33 996.45 996.49 996.61 996.73 996.97 997.09 997.17 997.17 997.25 997.45 997.73 998.17 998.57 998.89 999.09 999.37 999.73 1000.21 1000.77 1001.29 1001.73 1002.05 1002.33 1002.61 1002.85 1003.05 1003.25 1003.41 1003.61 1003.89 1004.13 1004.25 1004.17 1004.13 1004.09 1004.09 1004.17 1004.25 1004.53 1004.97 1005.49 1006.01 1006.49 1007.01 1007.69 1008.29 1008.85 1009.33 1009.69 1010.09 1010.45 1010.85 1011.05 1011.25 1011.45 1011.61 1011.77
Wind_Speed
15 14 12 11 12 12 11 11 10 9 9 10 11 11 10 10 10 9 9 9 9 9 9 9 9 9 10 12 13 14 14 14 14 14 14 15 15 15 15 14 13 13 13 13 13 13 12 13 11 9 8 9 11 11 9 8 8 9 9 11 11 12 12 13 13 14 14 14 12
17 15 13 11 12 11 11 10 9 9 10 10 10 10 10 10 11 10 9 9 9 9 8 8 8 9 10 12 13 14 14 14 14 15 15 15 16 16 15 14 14 13 13 13 14 13 12 14 12 10 8 9 11 12 11 9 8 8 10 12 12 12 13 12 12 13 13 13 12
17 15 13 12 12 12 11 11 10 10 11 10 9 9 9 10 10 10 9 9 9 8 8 8 8 9 11 12 12 12 13 13 14 15 15 15 16 16 15 14 14 13 13 13 14 13 13 14 12 10 9 9 12 12 11 10 9 9 10 12 11 12 12 11 11 11 11 10 11
17 15 14 14 15 15 13 11 11 12 12 10 8 8 8 9 8 8 8 8 8 8 8 8 8 9 10 11 13 13 13 13 14 15 15 15 16 16 16 15 14 14 13 13 13 14 14 15 12 10 10 12 13 12 10 9 11 10 9 10 11 11 11 10 9 9 9 9 10
17 15 14 14 16 16 13 11 12 12 12 9 8 8 8 8 7 7 7 8 9 9 9 9 9 9 10 11 13 14 14 14 14 14 15 15 16 16 16 15 15 14 13 13 14 14 15 16 12 10 11 13 12 12 11 12 12 11 9 9 9 10 10 10 9 8 8 8 8
16 15 14 13 16 15 12 11 12 13 11 9 10 10 10 9 8 8 9 10 10 10 10 10 10 10 10 12 14 14 14 14 14 14 15 15 15 15 16 16 15 14 13 13 14 15 16 16 11 10 11 12 12 13 14 15 13 12 11 10 9 9 9 10 9 8 8 8 9
15 15 14 14 16 15 13 11 12 12 11 10 11 12 12 11 10 10 11 10 10 10 10 9 10 10 11 13 13 14 14 14 14 15 15 14 15 15 16 16 16 15 14 14 15 16 16 15 11 10 10 11 10 13 16 17 16 16 15 13 11 9 9 12 9 8 9 12 12
14 14 14 15 15 15 14 13 12 12 11 10 12 14 15 14 13 12 12 11 10 10 10 9 11 12 13 13 13 14 14 15 15 15 15 14 15 15 16 16 16 16 16 15 16 16 15 13 11 11 11 10 9 11 14 18 19 19 19 18 13 10 9 10 9 9 10 13 13
13 14 14 14 15 14 14 13 13 13 12 11 12 14 15 14 14 13 12 11 10 10 10 10 12 13 14 14 14 14 14 15 15 15 14 14 14 15 15 15 16 17 17 16 17 17 16 12 11 11 11 10 10 11 13 16 17 18 19 18 15 12 10 9 10 10 11 13 14
13 13 14 14 14 13 13 13 13 13 13 12 13 14 13 13 13 13 12 10 10 10 11 11 12 13 14 15 14 14 14 13 14 14 14 14 14 15 15 15 17 17 17 16 16 16 16 12 12 12 12 11 12 13 14 15 16 16 16 14 14 14 12 10 10 11 12 13 14
13 13 13 12 13 13 12 13 12 12 12 13 13 13 12 12 13 12 11 10 10 12 13 12 13 13 14 14 13 13 13 12 12 13 14 15 15 15 16 16 17 17 17 15 15 14 14 12 13 14 14 13 13 13 14 15 16 16 15 12 14 15 14 12 12 11 12 13 14
13 12 12 11 12 12 12 12 11 11 11 12 13 12 12 12 13 12 11 11 12 13 13 12 13 13 13 12 12 11 11 12 12 13 14 15 16 17 17 16 17 17 17 16 15 14 13 14 15 16 17 16 13 12 13 16 16 16 15 13 15 15 15 14 13 12 11 12 13
12 12 11 11 12 12 12 11 10 10 11 12 12 12 11 11 12 11 11 13 13 12 11 12 12 12 12 11 11 11 11 11 13 14 14 16 17 18 18 17 17 17 17 16 15 14 14 16 18 19 18 17 13 13 14 17 16 16 15 15 16 16 16 15 15 13 11 12 12
11 11 11 11 12 12 11 10 9 9 10 12 12 11 11 11 11 11 11 12 12 11 10 11 11 11 11 11 11 11 11 12 13 14 16 17 18 18 18 17 17 17 16 15 15 16 17 18 20 20 19 18 15 15 15 17 16 16 16 16 17 17 17 16 15 14 13 13 13
9 10 10 10 10 10 10 10 9 9 10 12 12 11 11 10 10 10 10 12 11 11 10 10 10 10 10 11 12 12 12 12 14 15 16 17 18 18 18 17 18 17 16 15 16 17 19 21 21 21 20 19 17 16 16 16 16 16 15 16 17 18 17 16 15 14 14 15 14
7 8 8 9 9 10 10 10 9 9 10 11 11 11 10 10 9 9 10 11 10 9 9 10 10 10 10 11 12 13 13 13 13 14 15 16 17 17 17 17 18 17 17 17 16 17 19 21 21 21 21 21 19 18 17 17 16 16 15 15 16 17 17 16 15 15 15 15 14
4 6 8 9 10 10 11 10 9 9 10 10 10 10 10 9 9 9 9 10 9 9 10 11 10 10 10 10 11 12 12 12 13 13 14 15 16 17 17 17 17 17 17 17 17 17 18 19 19 20 21 22 21 20 19 18 17 16 15 15 15 16 16 16 15 14 14 15 14
4 6 8 9 10 11 11 11 9 9 10 10 10 10 9 9 9 9 9 10 9 10 11 11 11 10 10 11 11 11 11 12 12 13 13 14 15 16 16 16 17 17 16 17 17 18 18 18 17 17 19 20 21 21 20 19 17 16 15 14 14 14 14 14 13 12 13 14 13
6 7 9 10 11 11 11 10 10 9 10 10 10 9 9 10 10 10 10 9 10 11 11 11 11 11 11 12 11 10 10 11 13 13 13 14 15 15 16 16 16 16 16 16 17 17 17 17 16 16 17 18 19 20 20 19 17 15 13 12 12 12 12 12 11 10 10 11 11
9 10 11 12 12 11 10 9 9 9 9 9 10 10 10 10 10 10 10 10 10 11 11 11 11 11 11 12 12 11 11 10 12 13 13 13 14 15 15 16 16 16 16 16 16 16 16 16 16 16 16 16 17 19 19 18 16 14 12 9 10 10 11 10 9 8 8 9 10
10 10 10 10 9 9 8 8 8 9 9 9 10 10 10 10 10 10 11 10 11 11 11 12 12 12 12 12 12 12 12 10 12 13 13 13 14 14 15 15 16 16 15 15 15 16 16 16 16 16 15 14 16 17 17 17 16 14 12 9 8 9 9 10 9 8 8 9 9
9 8 7 7 7 7 7 7 8 8 9 9 9 9 9 10 9 9 10 10 10 11 12 12 12 12 13 12 13 13 12 11 13 13 12 12 13 13 14 14 16 16 16 16 15 15 16 16 16 16 15 14 14 15 16 16 17 15 13 11 10 9 9 9 8 8 7 8 8
7 6 6 6 6 6 6 7 7 8 8 8 8 8 9 9 8 8 9 9 10 11 12 12 12 13 13 13 13 13 13 13 14 14 13 12 12 13 13 14 15 16 16 15 15 15 15 15 16 16 15 14 15 15 16 17 17 16 15 14 12 10 9 8 8 8 7 6 6
6 6 6 5 5 6 6 6 7 7 8 8 8 8 8 8 8 8 8 9 10 11 12 11 12 13 15 14 13 13 13 14 15 15 14 14 13 13 13 13 14 14 14 13 13 13 13 13 14 15 15 15 15 15 15 16 17 17 16 15 12 10 9 9 8 7 6 5 5
6 6 6 6 6 6 6 6 7 7 8 8 7 7 8 8 8 8 9 9 10 11 12 12 13 14 15 15 14 13 13 13 14 15 15 15 14 14 13 12 11 11 10 10 11 12 13 12 12 13 14 15 15 14 14 15 16 16 16 14 12 11 10 10 9 8 8 7 7
5 6 7 6 6 6 6 6 7 7 7 7 7 7 8 8 8 9 10 10 11 11 12 13 13 14 14 15 15 14 13 12 13 14 15 16 15 14 13 11 10 9 9 10 13 14 14 13 13 13 14 14 15 14 14 14 15 15 14 13 12 12 11 11 10 9 8 8 8
5 6 7 7 7 6 6 6 6 6 7 7 8 8 7 7 8 9 10 11 11 11 11 12 13 14 14 14 15 15 14 12 13 14 15 16 16 15 13 11 9 9 10 13 17 17 17 15 15 14 14 14 15 14 14 14 14 13 13 11 11 11 12 12 11 10 9 8 9
4 5 6 7 8 7 7 6 6 6 7 7 7 7 7 7 8 9 10 11 11 10 10 11 13 13 12 13 15 15 15 13 13 14 15 16 16 14 12 10 9 10 12 17 20 20 19 18 17 16 15 14 14 14 15 15 13 12 11 10 10 11 11 11 10 10 10 10 9
5 4 5 6 8 8 7 6 6 6 7 8 8 8 8 8 9 9 10 11 11 11 11 10 11 11 11 12 14 15 16 14 13 14 15 16 14 12 11 11 11 13 16 20 21 21 21 20 19 18 16 15 13 12 12 12 11 10 9 8 9 9 10 9 9 9 10 10 10
6 4 4 5 6 7 7 7 7 7 7 7 8 8 8 9 10 10 11 12 12 11 10 10 11 12 13 15 15 15 14 12 11 11 13 15 14 13 13 12 13 14 17 22 22 23 22 21 21 20 19 17 14 12 11 11 10 10 9 9 9 10 10 10 10 10 10 10 11
6 6 5 5 5 5 6 5 5 4 4 4 5 5 5 6 7 8 8 8 7 6 6 9 13 15 16 14 14 13 12 11 10 11 13 16 16 15 15 15 15 16 18 23 24 24 24 24 23 22 21 18 15 13 11 11 11 10 10 9 10 10 10 9 10 10 11 11 11
6 6 6 5 4 3 3 3 4 4 3 3 4 4 5 5 4 4 4 4 4 5 6 8 12 14 14 13 12 12 12 12 12 13 15 17 17 17 16 16 16 17 20 25 26 26 26 26 25 24 22 20 16 15 14 13 13 12 11 11 11 10 10 9 9 10 11 11 11
6 5 4 3 4 4 5 5 6 6 7 8 8 9 10 10 9 8 7 6 7 7 8 9 11 12 13 14 14 14 14 14 15 16 17 18 18 18 17 16 15 18 22 27 28 28 28 28 27 26 24 21 17 15 15 14 13 12 11 11 11 11 11 11 10 10 10 10 10
5 4 5 6 6 6 7 7 8 8 9 10 11 11 11 11 10 9 8 7 8 8 9 10 12 13 14 15 15 15 15 14 16 18 19 19 19 18 17 14 12 16 23 28 29 30 29 29 28 27 25 21 17 15 15 15 13 12 12 12 12 12 12 12 11 10 10 10 10
6 7 8 8 8 8 8 9 9 10 11 12 12 12 11 11 11 10 10 9 10 10 11 11 13 14 15 15 15 16 16 17 17 18 19 20 20 20 18 15 13 17 23 29 30 30 30 29 28 27 24 20 16 15 15 16 15 14 14 14 14 13 13 12 11 10 10 10 10
9 10 10 9 9 9 9 10 11 12 13 13 13 12 11 10 10 10 10 10 12 13 14 14 16 17 17 16 15 15 16 17 18 19 19 20 21 21 19 16 15 17 22 27 29 29 29 29 28 27 24 18 15 14 14 14 14 15 15 15 15 14 13 12 11 10 10 9 10
10 11 11 10 10 9 10 11 12 13 13 13 12 12 11 11 10 10 10 11 14 15 16 16 17 18 18 17 16 15 15 16 18 19 19 20 21 21 20 17 15 15 18 23 26 27 27 28 28 26 23 18 15 14 13 12 12 13 15 15 14 13 12 11 10 10 10 10 10
10 11 11 11 11 10 11 11 13 13 13 12 11 11 11 11 10 10 9 11 14 16 17 18 18 19 19 19 18 18 17 17 18 18 19 19 19 20 20 18 15 13 14 17 21 23 25 26 26 25 22 18 16 14 13 12 12 13 13 13 12 12 11 10 9 10 11 12 13
10 11 11 12 12 12 12 12 13 13 13 12 11 11 12 12 10 10 10 12 15 17 18 19 19 19 19 20 20 20 19 19 18 18 18 17 17 18 19 18 15 13 12 14 17 20 22 24 25 24 22 18 16 14 13 13 13 13 13 12 12 12 11 10 9 10 11 14 16
10 11 11 12 12 12 12 13 12 12 12 12 12 12 13 13 12 11 11 13 15 17 18 19 19 19 18 20 20 21 21 20 19 18 18 17 16 17 18 17 16 14 13 14 16 18 20 22 23 23 21 17 15 13 13 13 14 14 13 12 11 11 11 10 9 9 10 12 15
10 10 11 12 12 12 13 13 13 12 11 11 12 12 13 13 13 13 13 14 16 16 17 17 18 19 19 18 19 20 21 20 19 18 17 17 16 16 16 15 15 15 14 15 16 17 19 20 21 21 19 16 14 13 12 13 14 14 14 12 11 10 10 10 9 9 9 10 11
Wind_Direction
209 205 199 195 193 193 193 195 190 186 184 182 183 183 183 182 185 185 184 183 185 186 187 186 185 184 181 179 181 184 187 190 192 195 197 200 203 204 204 204 202 200 200 202 200 199 197 196 198 198 196 192 201 203 197 177 179 192 208 218 224 217 202 183 175 171 169 167 167
208 204 198 191 190 191 191 191 187 185 184 185 184 183 182 182 185 184 182 184 184 184 184 183 182 180 178 178 181 183 187 190 193 195 198 201 203 204 203 203 201 200 199 200 199 197 195 194 195 195 192 190 202 204 198 179 175 185 202 214 221 219 210 194 180 171 167 165 164
205 200 194 189 188 187 188 188 186 183 183 184 182 181 180 181 183 182 181 182 180 179 179 181 179 177 176 177 180 183 187 191 193 196 198 201 203 203 202 200 198 196 195 194 193 192 191 191 192 190 188 188 199 198 189 172 169 177 194 208 216 217 212 202 183 171 165 164 162
201 196 191 187 185 185 185 184 182 181 181 181 179 176 177 179 180 179 176 175 174 175 177 178 176 175 176 176 180 184 188 191 194 197 199 201 202 201 199 196 194 192 189 186 186 187 187 188 186 183 181 184 188 186 179 168 168 171 183 199 210 213 211 203 185 172 165 163 163
197 193 188 185 184 183 182 178 177 178 180 177 174 173 173 174 174 171 169 171 174 176 176 175 174 175 177 178 182 185 189 191 194 197 199 201 200 198 196 193 191 188 185 181 181 182 183 183 179 174 174 179 182 181 177 170 165 166 175 192 205 210 209 202 187 174 165 162 162
193 189 184 181 181 180 179 174 173 175 176 173 171 171 171 171 170 169 169 173 175 174 172 172 172 175 178 181 184 187 189 191 194 197 198 198 197 194 192 191 189 186 182 179 179 178 178 177 171 166 167 175 183 186 185 179 171 169 174 188 200 206 207 203 189 174 163 159 160
187 183 178 177 178 178 176 172 171 171 170 168 169 171 171 170 169 169 169 172 173 171 170 171 174 177 179 182 185 188 190 191 194 196 196 195 192 190 188 188 186 184 181 179 178 177 175 171 163 157 158 167 177 186 190 190 184 179 177 181 190 198 202 201 190 174 162 160 160
180 176 173 174 176 176 173 169 168 167 167 166 169 171 171 168 169 168 169 170 173 173 173 176 178 180 181 183 186 188 190 192 193 193 192 190 187 186 184 184 184 183 182 181 180 177 173 166 156 152 153 161 168 177 184 188 185 180 176 175 178 185 192 195 186 173 164 161 162
173 170 170 171 174 173 169 165 164 164 164 164 168 169 169 167 168 168 169 172 175 175 175 179 181 180 181 183 186 188 190 190 190 189 187 185 183 182 182 182 183 184 184 183 180 175 169 160 151 150 153 160 165 170 175 179 182 180 175 170 169 173 180 187 179 171 164 162 163
167 166 167 168 169 167 163 161 161 161 161 162 167 169 169 167 169 171 173 174 175 176 177 181 181 180 181 184 186 188 189 189 188 186 184 182 182 182 182 182 183 184 184 183 179 173 166 154 147 148 154 160 165 169 173 178 182 182 179 169 163 164 169 178 173 168 164 163 165
161 162 162 162 161 159 157 157 159 160 162 165 170 171 170 170 173 174 174 172 174 177 180 181 180 180 182 184 186 187 187 186 185 183 181 181 183 184 184 184 183 182 182 181 177 172 163 151 146 148 153 160 165 169 174 179 183 183 179 168 158 158 163 173 172 169 166 164 165
155 155 154 153 153 153 154 156 159 161 164 168 171 172 173 174 176 174 171 170 174 178 180 181 180 181 182 183 185 184 184 184 183 182 181 182 184 185 185 184 182 180 180 179 177 172 162 151 148 149 154 160 165 170 174 178 180 180 176 166 157 157 162 171 174 173 168 164 165
149 148 147 147 149 152 154 157 160 163 167 170 172 174 175 177 175 171 168 169 174 177 178 180 180 180 180 181 181 182 182 183 183 182 182 183 184 185 184 182 179 179 179 179 178 172 162 152 151 152 155 160 165 169 173 175 178 177 173 164 158 158 163 170 173 172 167 162 165
143 143 144 146 149 153 156 159 162 167 171 173 175 176 176 176 173 169 167 169 172 174 175 176 178 179 179 179 179 180 182 183 183 183 183 184 184 183 182 179 177 177 178 179 177 171 163 156 154 155 157 161 165 168 170 173 175 175 171 164 160 160 162 168 171 169 164 163 168
140 142 143 145 149 154 159 164 167 171 173 175 176 175 175 174 171 168 167 169 171 172 172 172 175 177 178 178 179 180 181 182 181 181 181 181 182 181 179 176 175 176 177 178 176 170 164 159 158 158 159 163 165 166 168 170 173 173 170 165 161 160 162 166 168 167 165 166 170
138 143 145 149 155 161 167 171 172 173 173 173 172 172 172 172 170 168 168 169 169 170 171 172 174 175 176 178 179 180 180 180 179 178 177 178 178 179 178 175 174 175 176 177 174 169 165 162 161 161 162 164 165 165 165 167 171 172 170 165 161 159 161 166 167 167 167 168 171
140 150 155 160 165 169 172 173 171 171 170 169 167 167 168 169 169 169 170 170 170 170 171 172 173 174 176 179 180 179 179 178 177 176 175 175 176 177 177 175 174 175 175 175 171 166 163 162 163 164 165 166 165 164 164 165 168 169 168 164 160 159 160 164 166 167 169 172 173
161 165 167 170 173 174 173 169 167 166 164 162 162 164 166 168 169 170 172 172 171 170 171 172 173 175 177 179 180 180 180 179 177 175 174 175 176 177 177 176 174 174 173 172 168 163 160 160 163 166 168 168 166 164 162 162 163 164 163 160 158 157 158 160 163 166 170 176 177
174 173 173 174 175 174 171 165 162 160 159 159 160 163 167 170 170 172 173 174 173 172 172 172 173 176 178 179 180 182 182 180 176 174 174 175 176 177 176 175 173 171 170 168 164 160 158 159 162 167 170 171 168 163 159 157 156 156 155 155 155 155 154 156 160 166 174 180 177
174 174 174 174 172 168 163 157 156 156 157 159 162 165 168 171 172 173 175 176 175 175 176 176 175 175 176 178 179 181 182 180 175 174 175 176 177 176 175 173 170 168 166 163 160 158 157 158 161 166 169 171 167 161 154 149 147 146 147 152 155 153 152 155 163 173 181 184 176
173 172 170 167 161 155 150 148 151 154 157 161 166 168 170 172 174 176 177 178 176 178 180 181 179 177 175 176 179 180 179 176 175 175 176 177 177 176 174 171 168 165 162 161 159 157 156 157 159 161 163 165 161 155 148 141 140 140 143 150 154 154 154 161 173 181 185 181 173
167 161 152 143 142 141 140 142 148 153 158 164 168 170 172 175 177 178 178 178 178 180 183 186 184 180 178 178 182 182 179 173 175 176 177 177 177 175 172 169 166 163 161 161 159 157 155 153 154 154 155 155 153 148 142 137 137 139 143 148 151 154 159 169 176 179 176 170 166
153 139 127 124 130 134 137 141 148 155 161 167 171 173 176 180 182 182 181 180 181 183 186 190 188 183 180 179 183 184 181 172 173 175 177 177 175 173 171 169 165 162 161 161 159 156 152 149 149 149 149 148 145 142 139 137 138 142 145 149 150 154 161 168 168 165 159 153 150
139 129 123 125 131 135 138 142 149 157 164 171 175 179 182 184 186 187 187 187 188 188 190 194 192 185 180 178 182 182 178 170 170 172 175 175 173 171 169 167 163 161 160 160 158 155 150 147 147 147 147 144 142 139 138 138 141 144 146 148 149 152 155 155 150 144 135 120 107
134 130 130 134 138 140 144 149 155 163 170 177 181 185 187 187 188 191 193 194 195 194 194 196 193 185 178 176 179 178 174 168 168 170 171 171 169 167 166 163 159 156 153 150 146 143 141 142 145 146 145 142 138 136 135 137 140 141 142 144 147 148 145 136 125 116 108 101 93
138 138 140 144 146 150 154 161 165 170 177 184 189 192 193 190 189 191 195 199 200 199 197 194 191 184 177 174 175 175 173 170 171 171 169 167 165 164 162 157 152 146 139 133 130 128 128 131 137 140 141 138 135 132 132 133 135 137 138 142 146 144 138 127 117 109 103 99 94
148 147 148 153 156 162 167 173 174 179 184 191 197 199 199 195 193 193 196 199 201 200 196 192 189 183 176 172 172 172 172 173 176 175 171 163 161 160 157 150 143 135 128 124 122 121 121 123 127 130 131 131 130 130 130 131 134 136 139 142 141 137 131 125 121 115 107 97 89
164 158 152 157 164 171 177 180 182 187 192 199 203 204 201 198 197 198 199 200 199 197 193 190 188 182 175 169 170 170 171 172 178 178 173 161 155 152 148 137 130 126 124 124 122 121 120 120 120 121 122 123 124 125 126 129 132 134 135 134 129 125 123 123 121 117 111 102 93
174 169 159 163 169 173 177 183 190 196 202 207 209 206 203 199 200 200 200 199 198 195 192 189 186 180 173 169 168 168 168 169 175 176 170 156 145 137 129 121 121 123 124 124 122 120 119 117 115 114 113 114 116 117 119 121 121 122 120 118 117 117 118 120 119 116 112 106 99
177 178 173 174 174 174 178 188 197 203 209 215 212 208 203 199 199 199 198 197 198 196 193 189 186 180 173 167 165 164 163 164 165 160 150 138 128 122 119 119 122 124 123 120 118 116 114 111 108 106 104 104 105 106 106 107 108 108 107 107 109 112 114 116 117 116 114 109 104
179 186 190 190 186 182 181 185 189 193 199 210 206 199 193 191 193 191 189 188 187 181 179 185 189 183 174 162 157 153 148 142 140 133 126 119 117 117 118 120 122 120 116 113 111 110 108 105 102 100 98 98 99 100 100 100 100 100 100 102 105 107 109 111 112 112 113 112 110
184 191 195 191 177 160 147 138 136 134 133 128 116 106 102 100 116 128 131 126 120 122 136 161 175 172 162 143 134 129 126 123 122 118 114 111 112 114 115 116 117 114 110 108 107 106 104 102 100 98 97 96 97 98 98 97 95 93 93 94 96 99 101 103 103 105 107 110 112
189 187 177 150 129 120 118 120 121 117 109 101 94 90 87 86 87 89 90 90 92 98 107 119 133 135 130 120 116 114 114 114 112 109 106 106 108 108 109 108 110 110 109 107 106 105 104 103 102 100 99 97 98 97 96 95 93 92 90 89 89 89 90 92 95 98 101 104 107
172 152 133 122 120 120 121 122 119 113 106 98 93 91 91 92 93 91 88 84 85 88 93 99 105 106 107 108 109 109 108 106 105 103 103 103 102 101 100 100 104 109 110 109 107 107 106 106 104 103 100 98 97 96 96 95 93 92 91 90 87 84 84 85 87 90 94 99 102
136 129 124 120 120 121 122 121 115 109 103 98 95 94 94 97 98 97 95 93 92 91 91 93 93 93 94 95 99 101 101 101 101 101 102 101 99 96 94 93 99 107 110 110 109 109 110 110 108 106 103 100 98 97 97 95 94 93 92 89 85 82 81 81 82 84 88 92 97
127 124 121 118 117 118 117 116 110 105 102 99 99 100 101 101 100 101 100 99 96 94 92 91 89 88 88 88 88 90 94 99 100 100 100 100 99 97 95 94 96 102 107 110 111 113 113 113 111 108 105 102 101 100 99 96 95 92 90 87 84 81 79 79 79 79 81 84 89
121 119 116 114 114 113 112 110 107 104 103 103 106 107 107 104 101 101 101 100 95 92 89 86 85 85 85 84 83 82 85 91 95 96 97 97 99 99 98 96 94 96 101 108 113 115 116 115 113 110 108 106 106 104 102 98 96 92 89 86 83 81 79 78 77 75 74 75 79
114 114 113 112 111 109 108 106 105 105 106 107 109 108 106 101 98 96 96 96 93 91 88 84 83 84 85 85 82 79 77 79 84 88 90 92 96 99 100 98 94 92 96 104 111 114 115 114 112 111 111 111 111 109 105 101 98 94 91 88 85 81 78 77 75 73 72 71 74
106 108 108 108 107 106 104 103 104 106 107 109 107 104 100 96 93 91 90 91 92 91 89 86 86 86 87 86 83 79 74 72 74 78 81 84 89 94 97 97 94 90 90 96 104 108 110 110 110 111 111 112 111 110 107 104 101 98 95 93 89 84 78 76 75 74 73 73 75
96 99 101 101 102 102 101 101 101 103 105 106 104 101 98 96 95 93 91 89 89 89 88 87 87 87 86 86 84 81 76 71 70 72 75 78 80 84 88 93 92 89 86 88 94 99 103 106 108 109 110 110 111 110 109 107 104 101 98 96 93 89 84 79 77 77 76 75 76
86 89 92 94 96 97 99 99 98 98 98 100 100 100 99 99 98 96 94 90 88 87 87 86 86 85 84 84 83 81 79 75 72 72 73 75 75 77 80 86 89 87 84 82 86 90 95 100 103 106 108 110 111 111 110 109 106 104 102 100 99 98 95 90 85 81 80 79 78